FENGYUN 1C DEB

Satellite information

Favourite Embed

Satellite Type and Status

DEBRISIN ORBIT

Key statistics

Satellite FENGYUN 1C DEB at a glance.

Uptime

9714

Days in orbit

Revolutions

≈ 14.4

Per day

Orbit

SSO

Sun Synchronous Orbit

Inclination

99.0

Latest

Satellite identification and parameters

Extended collection of information and parameters for FENGYUN 1C DEB.

Object identification

Identified? True

Debris? True

Object name: FENGYUN 1C DEB

International designator: 1999-025BMT

Object number (NORAD): 31261

Object ID (CCSDS): 31261

Country: PEOPLES REPUBLIC OF CHINA (PRC)

Current information (Y/N): Y

RCS size: SMALL

Orbital parameters

Period: 99.995 minutes

Inclination: 99.0154 deg

SMA: 7136.386 km

Apoapsis: 793.888 km

Periapsis: 722.613 km

RAAN: 299.2076 deg

Eccentricy: 0.0049938

Argument of periapsis: 235.6229 deg

Mean anomaly: 124.0229 deg

Mean motion: 14.40075644 rev/day

Mean motion (dot): 0.00005277 rev/day2

B* drag term: 0.0016627 1/REarth

Two-line elements (TLE)

Creation date: Dec. 12, 2025, 7:26 a.m.

Reference frame: TEME

Reference center: EARTH

Epoch: Dec. 11, 2025, 8:16 p.m. UTC

TLE line 0: 0 FENGYUN 1C DEB

TLE line 1: 1 31261U 99025BMT 25345.84480890 .00005277 00000-0 16627-2 0 9993

TLE line 2: 2 31261 99.0154 299.2076 0049938 235.6229 124.0229 14.40075644973374

Live tracking on map

Real-time ground track for satellite FENGYUN 1C DEB.

In-orbit conjunctions

A list of the most updated potential collisions computed for object FENGYUN 1C DEB.

Target Orbit TCA Probability of collision Miss distance Type
FUSE 1 LEO 2025-11-13 16:53:39 0.0001373345 557.0 (m) PAYLOAD
FENGYUN 1C DEB SSO 2024-09-25 05:51:46 0.0002176304 523.0 (m) DEBRIS
CBERS 1 SSO 2024-07-04 14:01:13 0.001230514 126.0 (m) PAYLOAD

Associated space launch

Chinese polar orbiting meteorological satellite

FENGYUN 1C DEB was lifted into orbit during the mission ‘Long March 4B | Feng Yun 1C’, on board a Long March 4B space rocket.

The launch took place on May 10, 1999, 1:33 a.m. from Launch Complex 7.

For more information about the launch, click the button.

Launch to space Long March 4B | Feng Yun 1C
Long March 4B | Feng Yun 1C

Agency: N/A

Status: Launch Successful

Launch date: May 10, 1999, 1:33 a.m. UTC

Rocket: Long March 4B

Launch pad: Launch Complex 7

Location: Taiyuan Satellite Launch Center, People's Republic of China

...

Latest news about this satellite

There are no fresh news available about this satellite. Check back as we update our databases every day.


Newsletter sign-up

Weekly statistics, charts and insights to help you stay on top of the space industry.